Find Starlink 11429

NORAD ID: 62061 Int'l Des: 2024-217 Owner: SPXS Country: US Constellation: starlink operational
LEOCIRCULAR

实时位置

正在加载3D地球...

关于 Starlink 11429

正在加载描述...

即将过境

Passes for default location (London). Set your location on the main map for personalized predictions.

高度历史

Loading altitude history...

两行轨道根数

1 62061U 24217E 26123.57995616 .00144108 00000-0 11715-2 0 9998
2 62061 53.1561 160.7423 0001544 43.0243 317.0896 15.69756639 83799
Epoch: May 3, 2026 • Age: 11 hours

当前状态

高度 362.0 km
速度 7.70 km/s
星下点 40.79°N, 36.11°W
发射日期 Nov 24, 2024
运行时间 1.4 years
类型 internet

技术详情

分类 Payload
质量 960.00 kg
干质量 910.00 kg
总质量 960.00 kg
长度 0.30 m
直径 4.10 m
跨度 29.00 m
形状 Box + pan
制造商 SPXS
平台类型 Starlink V2MD
阶段状态 In Orbit
所有者/国家 SPXS/US

Most Searched